,,,PA_Meas_PMT16A,,PR_Meas_QMR101_102,,RH_Meas_QMH101,,SR_Meas_QMS101,,TA_Meas_QMH101,,GenWind,,GenWind,
date,time,status,PA,status,PR,status,RH,status,SR,status,TA,status,DirAvg,status,SpdAvg,
2009-02-12, 00:00:05,VALID,1002.42,VALID,0,VALID,94.3235,VALID,0,VALID,24.2875,VALID,357,VALID,0,
2009-02-12, 00:01:05,VALID,1002.42,VALID,0,VALID,94.3158,VALID,0,VALID,24.3088,VALID,357,VALID,0,
2009-02-12, 00:02:05,VALID,1002.43,VALID,0,VALID,94.3006,VALID,0,VALID,24.2875,VALID,357,VALID,0,
2009-02-12, 00:03:05,VALID,1002.42,VALID,0,VALID,94.3158,VALID,0,VALID,24.2875,VALID,357,VALID,0,
2009-02-12, 00:04:05,VALID,1002.43,VALID,0,VALID,94.293,VALID,0,VALID,24.2875,VALID,357,VALID,0,
2009-02-12, 00:05:05,VALID,1002.4,VALID,0,VALID,94.3006,VALID,0,VALID,24.2894,VALID,357,VALID,0,
2009-02-12, 00:06:05,VALID,1002.4,VALID,0,VALID,94.3082,VALID,0,VALID,24.2894,VALID,357,VALID,0,
2009-02-12, 00:07:05,VALID,1002.4,VALID,0,VALID,94.3082,VALID,0,VALID,24.3088,VALID,357,VALID,0,
2009-02-12, 00:08:05,VALID,1002.4,VALID,0,VALID,94.3158,VALID,0,VALID,24.2875,VALID,357,VALID,0,
2009-02-12, 00:09:05,VALID,1002.38,VALID,0,VALID,94.3387,VALID,0,VALID,24.2875,VALID,357,VALID,0,
2009-02-12, 00:10:05,VALID,1002.38,VALID,0,VALID,94.3235,VALID,0,VALID,24.2875,VALID,357,VALID,0,
2009-02-12, 00:11:05,VALID,1002.38,VALID,0,VALID,94.3158,VALID,0,VALID,24.2875,VALID,357,VALID,0,
2009-02-12, 00:12:05,VALID,1002.4,VALID,0,VALID,94.3235,VALID,0.100563,VALID,24.2857,VALID,357,VALID,0,
2009-02-12, 00:13:05,VALID,1002.39,VALID,0,VALID,94.3158,VALID,0,VALID,24.2857,VALID,357,VALID,0,
2009-02-12, 00:14:05,VALID,1002.39,VALID,0,VALID,94.2777,VALID,0,VALID,24.2662,VALID,357,VALID,0,
2009-02-12, 00:15:05,VALID,1002.38,VALID,0,VALID,94.2777,VALID,0,VALID,24.2468,VALID,357,VALID,0,
2009-02-12, 00:16:05,VALID,1002.36,VALID,0,VALID,94.3082,VALID,0,VALID,24.2681,VALID,357,VALID,0,
2009-02-12, 00:17:05,VALID,1002.37,VALID,0,VALID,94.3311,VALID,0,VALID,24.2468,VALID,357,VALID,0,
2009-02-12, 00:18:05,VALID,1002.34,VALID,0,VALID,94.354,VALID,0,VALID,24.2681,VALID,357,VALID,0,
2009-02-12, 00:19:05,VALID,1002.37,VALID,0,VALID,94.3616,VALID,0,VALID,24.2681,VALID,357,VALID,0,
2009-02-12, 00:20:05,VALID,1002.35,VALID,0,VALID,94.354,VALID,0,VALID,24.2468,VALID,357,VALID,0,
2009-02-12, 00:21:05,VALID,1002.37,VALID,0,VALID,94.3845,VALID,0,VALID,24.2875,VALID,357,VALID,0,
2009-02-12, 00:22:05,VALID,1002.34,VALID,0,VALID,94.354,VALID,0.100563,VALID,24.2468,VALID,357,VALID,0,
2009-02-12, 00:23:05,VALID,1002.35,VALID,0,VALID,94.3692,VALID,0,VALID,24.2486,VALID,357,VALID,0,
2009-02-12, 00:24:05,VALID,1002.32,VALID,0,VALID,94.3845,VALID,0,VALID,24.2681,VALID,357,VALID,0,
2009-02-12, 00:25:05,VALID,1002.34,VALID,0,VALID,94.3998,VALID,0,VALID,24.2468,VALID,357,VALID,0,
2009-02-12, 00:26:05,VALID,1002.34,VALID,0,VALID,94.415,VALID,0,VALID,24.2468,VALID,357,VALID,0,
2009-02-12, 00:27:05,VALID,1002.36,VALID,0,VALID,94.4227,VALID,0.100563,VALID,24.2662,VALID,357,VALID,0,
2009-02-12, 00:28:05,VALID,1002.35,VALID,0,VALID,94.4532,VALID,0.100563,VALID,24.2662,VALID,357,VALID,0,
2009-02-12, 00:29:05,VALID,1002.34,VALID,0,VALID,94.4455,VALID,0.100563,VALID,24.2662,VALID,357,VALID,0,
2009-02-12, 00:30:05,VALID,1002.37,VALID,0,VALID,94.4532,VALID,0,VALID,24.2857,VALID,357,VALID,0,
2009-02-12, 00:31:05,VALID,1002.35,VALID,0,VALID,94.4455,VALID,0,VALID,24.2857,VALID,357,VALID,0,
2009-02-12, 00:32:05,VALID,1002.36,VALID,0,VALID,94.4379,VALID,0,VALID,24.2857,VALID,357,VALID,0,
2009-02-12, 00:33:05,VALID,1002.36,VALID,0,VALID,94.4455,VALID,0,VALID,24.2857,VALID,357,VALID,0,
2009-02-12, 00:34:05,VALID,1002.33,VALID,0,VALID,94.415,VALID,0,VALID,24.307,VALID,357,VALID,0,
2009-02-12, 00:35:05,VALID,1002.32,VALID,0,VALID,94.4227,VALID,0,VALID,24.3052,VALID,357,VALID,0,
2009-02-12, 00:36:05,VALID,1002.28,VALID,0,VALID,94.3998,VALID,0,VALID,24.3265,VALID,357,VALID,0,
2009-02-12, 00:37:05,VALID,1002.3,VALID,0,VALID,94.3921,VALID,0.100563,VALID,24.3052,VALID,357,VALID,0,
2009-02-12, 00:38:05,VALID,1002.28,VALID,0,VALID,94.4074,VALID,0,VALID,24.3052,VALID,357,VALID,0,
2009-02-12, 00:39:05,VALID,1002.3,VALID,0,VALID,94.4074,VALID,0,VALID,24.3265,VALID,357,VALID,0,
2009-02-12, 00:40:05,VALID,1002.29,VALID,0,VALID,94.4227,VALID,0,VALID,24.3052,VALID,357,VALID,0,
2009-02-12, 00:41:05,VALID,1002.27,VALID,0,VALID,94.4303,VALID,0,VALID,24.3265,VALID,357,VALID,0,
2009-02-12, 00:42:05,VALID,1002.25,VALID,0,VALID,94.4303,VALID,0,VALID,24.3478,VALID,357,VALID,0,
2009-02-12, 00:43:05,VALID,1002.23,VALID,0,VALID,94.4379,VALID,0,VALID,24.3673,VALID,357,VALID,0,
2009-02-12, 00:44:05,VALID,1002.21,VALID,0,VALID,94.4455,VALID,0,VALID,24.3459,VALID,357,VALID,0,
2009-02-12, 00:45:05,VALID,1002.2,VALID,0,VALID,94.4455,VALID,0,VALID,24.3654,VALID,357,VALID,0,
2009-02-12, 00:46:05,VALID,1002.16,VALID,0,VALID,94.4532,VALID,0,VALID,24.3654,VALID,357,VALID,0,
2009-02-12, 00:47:05,VALID,1002.16,VALID,0,VALID,94.4303,VALID,0,VALID,24.3459,VALID,357,VALID,0,
2009-02-12, 00:48:05,VALID,1002.15,VALID,0,VALID,94.4227,VALID,0,VALID,24.3673,VALID,357,VALID,0,
2009-02-12, 00:49:05,VALID,1002.13,VALID,0,VALID,94.4455,VALID,0,VALID,24.3654,VALID,357,VALID,0,
2009-02-12, 00:50:05,VALID,1002.13,VALID,0,VALID,94.4455,VALID,0,VALID,24.3673,VALID,357,VALID,0,
2009-02-12, 00:51:05,VALID,1002.09,VALID,0,VALID,94.4761,VALID,0,VALID,24.3867,VALID,357,VALID,0,
2009-02-12, 00:52:05,VALID,1002.1,VALID,0,VALID,94.4761,VALID,0,VALID,24.3654,VALID,357,VALID,0,
2009-02-12, 00:53:05,VALID,1002.11,VALID,0,VALID,94.4837,VALID,0,VALID,24.3654,VALID,357,VALID,0,
2009-02-12, 00:54:05,VALID,1002.08,VALID,0,VALID,94.4455,VALID,0,VALID,24.3654,VALID,357,VALID,0,
2009-02-12, 00:55:04,VALID,1002.09,VALID,0,VALID,94.4837,VALID,0,VALID,24.3867,VALID,357,VALID,0,
2009-02-12, 00:56:04,VALID,1002.08,VALID,0,VALID,94.4608,VALID,0,VALID,24.4043,VALID,357,VALID,0,
2009-02-12, 00:57:04,VALID,1002.06,VALID,0,VALID,94.4837,VALID,0,VALID,24.3636,VALID,357,VALID,0,
2009-02-12, 00:58:04,VALID,1002.07,VALID,0,VALID,94.4455,VALID,0,VALID,24.4043,VALID,357,VALID,0,
2009-02-12, 00:59:04,VALID,1002.05,VALID,0,VALID,94.4684,VALID,0,VALID,24.3849,VALID,357,VALID,0,
2009-02-12, 01:00:04,VALID,1002.04,VALID,0,VALID,94.4532,VALID,0,VALID,24.3636,VALID,357,VALID,0,
2009-02-12, 01:01:04,VALID,1002.04,VALID,0,VALID,94.4379,VALID,0,VALID,24.3849,VALID,357,VALID,0,
2009-02-12, 01:02:04,VALID,1002.03,VALID,0,VALID,94.4455,VALID,0.100563,VALID,24.3654,VALID,357,VALID,0,
2009-02-12, 01:03:04,VALID,1002.02,VALID,0,VALID,94.4532,VALID,0.100563,VALID,24.4043,VALID,357,VALID,0,
2009-02-12, 01:04:04,VALID,1002.02,VALID,0,VALID,94.4532,VALID,0.100563,VALID,24.3636,VALID,357,VALID,0,
2009-02-12, 01:05:04,VALID,1002.03,VALID,0,VALID,94.4761,VALID,0.100563,VALID,24.3636,VALID,357,VALID,0,
2009-02-12, 01:06:04,VALID,1002.02,VALID,0,VALID,94.4684,VALID,0,VALID,24.3849,VALID,357,VALID,0,
2009-02-12, 01:07:04,VALID,1001.99,VALID,0,VALID,94.4837,VALID,0,VALID,24.3849,VALID,357,VALID,0,
2009-02-12, 01:08:04,VALID,1001.98,VALID,0,VALID,94.4837,VALID,0,VALID,24.4043,VALID,357,VALID,0,
2009-02-12, 01:09:04,VALID,1001.99,VALID,0,VALID,94.4989,VALID,0,VALID,24.4043,VALID,357,VALID,0,
2009-02-12, 01:10:04,VALID,1002,VALID,0,VALID,94.5523,VALID,0,VALID,24.4238,VALID,357,VALID,0,
2009-02-12, 01:11:04,VALID,1001.98,VALID,0,VALID,94.5218,VALID,0,VALID,24.4238,VALID,357,VALID,0,
2009-02-12, 01:12:04,VALID,1001.95,VALID,0,VALID,94.4837,VALID,0,VALID,24.4433,VALID,357,VALID,0,
2009-02-12, 01:13:04,VALID,1001.91,VALID,0,VALID,94.4455,VALID,0,VALID,24.4238,VALID,357,VALID,0,
2009-02-12, 01:14:04,VALID,1001.91,VALID,0,VALID,94.415,VALID,0,VALID,24.4238,VALID,357,VALID,0,
2009-02-12, 01:15:04,VALID,1001.9,VALID,0,VALID,94.3921,VALID,0,VALID,24.4043,VALID,357,VALID,0,
2009-02-12, 01:16:04,VALID,1001.87,VALID,0,VALID,94.3998,VALID,0,VALID,24.4043,VALID,357,VALID,0,
2009-02-12, 01:17:04,VALID,1001.87,VALID,0,VALID,94.4074,VALID,0,VALID,24.3849,VALID,357,VALID,0,
2009-02-12, 01:18:04,VALID,1001.86,VALID,0,VALID,94.415,VALID,0,VALID,24.3654,VALID,357,VALID,0,
2009-02-12, 01:19:04,VALID,1001.89,VALID,0,VALID,94.3616,VALID,0,VALID,24.3654,VALID,357,VALID,0,
2009-02-12, 01:20:04,VALID,1001.87,VALID,0,VALID,94.3845,VALID,0,VALID,24.3459,VALID,357,VALID,0,
2009-02-12, 01:21:04,VALID,1001.87,VALID,0,VALID,94.3921,VALID,0,VALID,24.3459,VALID,357,VALID,0,
2009-02-12, 01:22:04,VALID,1001.88,VALID,0,VALID,94.4455,VALID,0,VALID,24.3246,VALID,357,VALID,0,
2009-02-12, 01:23:04,VALID,1001.88,VALID,0,VALID,94.4379,VALID,0,VALID,24.3459,VALID,357,VALID,0,
2009-02-12, 01:24:04,VALID,1001.87,VALID,0,VALID,94.4684,VALID,0,VALID,24.3654,VALID,357,VALID,0,
2009-02-12, 01:25:04,VALID,1001.88,VALID,0,VALID,94.4913,VALID,0,VALID,24.3654,VALID,357,VALID,0,
2009-02-12, 01:26:04,VALID,1001.88,VALID,0,VALID,94.4913,VALID,0,VALID,24.3849,VALID,357,VALID,0,
2009-02-12, 01:27:04,VALID,1001.84,VALID,0,VALID,94.4913,VALID,0,VALID,24.3636,VALID,357,VALID,0,
2009-02-12, 01:28:04,VALID,1001.83,VALID,0,VALID,94.56,VALID,0,VALID,24.4043,VALID,357,VALID,0,
2009-02-12, 01:29:04,VALID,1001.84,VALID,0,VALID,94.56,VALID,0,VALID,24.4238,VALID,357,VALID,0,
2009-02-12, 01:30:04,VALID,1001.84,VALID,0,VALID,94.5371,VALID,0,VALID,24.4238,VALID,357,VALID,0,
2009-02-12, 01:31:04,VALID,1001.82,VALID,0,VALID,94.4761,VALID,0,VALID,24.383,VALID,357,VALID,0,
2009-02-12, 01:32:04,VALID,1001.82,VALID,0,VALID,94.4684,VALID,0,VALID,24.383,VALID,357,VALID,0,
2009-02-12, 01:33:04,VALID,1001.79,VALID,0,VALID,94.4455,VALID,0.100563,VALID,24.3849,VALID,357,VALID,0,
2009-02-12, 01:34:04,VALID,1001.79,VALID,0,VALID,94.4608,VALID,0,VALID,24.3654,VALID,357,VALID,0,
2009-02-12, 01:35:04,VALID,1001.77,VALID,0,VALID,94.4379,VALID,0.100563,VALID,24.3654,VALID,357,VALID,0,
2009-02-12, 01:36:04,VALID,1001.77,VALID,0,VALID,94.4379,VALID,0,VALID,24.3459,VALID,357,VALID,0,
2009-02-12, 01:37:04,VALID,1001.72,VALID,0,VALID,94.4608,VALID,0,VALID,24.3459,VALID,357,VALID,0,
2009-02-12, 01:38:04,VALID,1001.73,VALID,0,VALID,94.4837,VALID,0,VALID,24.3265,VALID,357,VALID,0,
2009-02-12, 01:39:04,VALID,1001.72,VALID,0,VALID,94.5295,VALID,0,VALID,24.3459,VALID,357,VALID,0,
2009-02-12, 01:40:04,VALID,1001.7,VALID,0,VALID,94.5523,VALID,0,VALID,24.3654,VALID,357,VALID,0,
2009-02-12, 01:41:04,VALID,1001.69,VALID,0,VALID,94.5523,VALID,0,VALID,24.3654,VALID,357,VALID,0,
2009-02-12, 01:42:04,VALID,1001.67,VALID,0,VALID,94.5447,VALID,0,VALID,24.3654,VALID,357,VALID,0,
2009-02-12, 01:43:04,VALID,1001.66,VALID,0,VALID,94.5218,VALID,0,VALID,24.3441,VALID,357,VALID,0,
2009-02-12, 01:44:04,VALID,1001.65,VALID,0,VALID,94.4989,VALID,0,VALID,24.3246,VALID,357,VALID,0,
2009-02-12, 01:45:04,VALID,1001.66,VALID,0,VALID,94.5218,VALID,0,VALID,24.3459,VALID,357,VALID,0,
2009-02-12, 01:46:04,VALID,1001.64,VALID,0,VALID,94.5981,VALID,0,VALID,24.3441,VALID,357,VALID,0,
2009-02-12, 01:47:04,VALID,1001.62,VALID,0,VALID,94.5752,VALID,0,VALID,24.3654,VALID,357,VALID,0,
2009-02-12, 01:48:04,VALID,1001.61,VALID,0,VALID,94.5905,VALID,0,VALID,24.3654,VALID,357,VALID,0,
2009-02-12, 01:49:04,VALID,1001.6,VALID,0,VALID,94.6363,VALID,0,VALID,24.4062,VALID,357,VALID,0,
2009-02-12, 01:50:04,VALID,1001.58,VALID,0,VALID,94.6363,VALID,0,VALID,24.4043,VALID,357,VALID,0,
2009-02-12, 01:51:04,VALID,1001.57,VALID,0,VALID,94.6286,VALID,0,VALID,24.4025,VALID,357,VALID,0,
2009-02-12, 01:52:04,VALID,1001.57,VALID,0,VALID,94.5905,VALID,0,VALID,24.3849,VALID,357,VALID,0,
2009-02-12, 01:53:04,VALID,1001.56,VALID,0,VALID,94.5523,VALID,0,VALID,24.3849,VALID,357,VALID,0,
2009-02-12, 01:54:04,VALID,1001.53,VALID,0,VALID,94.5829,VALID,0,VALID,24.3654,VALID,357,VALID,0,
2009-02-12, 01:55:04,VALID,1001.54,VALID,0,VALID,94.5752,VALID,0,VALID,24.3654,VALID,357,VALID,0,
2009-02-12, 01:56:04,VALID,1001.51,VALID,0,VALID,94.5752,VALID,0.100563,VALID,24.3849,VALID,357,VALID,0,
2009-02-12, 01:57:04,VALID,1001.5,VALID,0,VALID,94.5981,VALID,0,VALID,24.3654,VALID,357,VALID,0,
2009-02-12, 01:58:04,VALID,1001.48,VALID,0,VALID,94.5829,VALID,0,VALID,24.3849,VALID,357,VALID,0,
2009-02-12, 01:59:04,VALID,1001.47,VALID,0,VALID,94.6057,VALID,0,VALID,24.3654,VALID,357,VALID,0,
2009-02-12, 02:00:04,VALID,1001.45,VALID,0,VALID,94.5752,VALID,0,VALID,24.3849,VALID,357,VALID,0,
2009-02-12, 02:01:04,VALID,1001.46,VALID,0,VALID,94.6057,VALID,0,VALID,24.3849,VALID,357,VALID,0,
2009-02-12, 02:02:04,VALID,1001.47,VALID,0,VALID,94.6134,VALID,0.100563,VALID,24.3849,VALID,357,VALID,0,
2009-02-12, 02:03:04,VALID,1001.45,VALID,0,VALID,94.621,VALID,0,VALID,24.4043,VALID,357,VALID,0,
2009-02-12, 02:04:04,VALID,1001.44,VALID,0,VALID,94.6057,VALID,0,VALID,24.3849,VALID,357,VALID,0,
2009-02-12, 02:05:04,VALID,1001.4,VALID,0,VALID,94.6057,VALID,0.100563,VALID,24.4062,VALID,357,VALID,0,
2009-02-12, 02:06:04,VALID,1001.4,VALID,0,VALID,94.621,VALID,0,VALID,24.3849,VALID,357,VALID,0,
2009-02-12, 02:07:04,VALID,1001.37,VALID,0,VALID,94.6363,VALID,0,VALID,24.4043,VALID,357,VALID,0,
2009-02-12, 02:08:04,VALID,1001.35,VALID,0,VALID,94.6515,VALID,0,VALID,24.383,VALID,357,VALID,0,
2009-02-12, 02:09:04,VALID,1001.35,VALID,0,VALID,94.6363,VALID,0,VALID,24.4025,VALID,357,VALID,0,
2009-02-12, 02:10:04,VALID,1001.31,VALID,0,VALID,94.621,VALID,0,VALID,24.4043,VALID,357,VALID,0,
2009-02-12, 02:11:04,VALID,1001.29,VALID,0,VALID,94.6439,VALID,0,VALID,24.4238,VALID,56,VALID,0,
2009-02-12, 02:12:04,VALID,1001.3,VALID,0,VALID,94.6897,VALID,0.100563,VALID,24.4822,VALID,85,VALID,0.557813,
2009-02-12, 02:13:04,VALID,1001.31,VALID,0,VALID,94.7583,VALID,0,VALID,24.5212,VALID,100,VALID,0.727344,
2009-02-12, 02:14:04,VALID,1001.32,VALID,0,VALID,94.7354,VALID,0,VALID,24.5406,VALID,100,VALID,0.517969,
2009-02-12, 02:15:04,VALID,1001.29,VALID,0,VALID,94.7278,VALID,0,VALID,24.5796,VALID,82,VALID,0.495703,
2009-02-12, 02:16:04,VALID,1001.29,VALID,0,VALID,94.7049,VALID,0,VALID,24.599,VALID,79,VALID,0.860547,
2009-02-12, 02:17:04,VALID,1001.31,VALID,0,VALID,94.6668,VALID,0.100563,VALID,24.6166,VALID,78,VALID,0.8375,
2009-02-12, 02:18:04,VALID,1001.29,VALID,0,VALID,94.5905,VALID,0,VALID,24.6361,VALID,84,VALID,0.677344,
2009-02-12, 02:19:04,VALID,1001.32,VALID,0,VALID,94.5523,VALID,0,VALID,24.6964,VALID,102,VALID,0.375781,
2009-02-12, 02:20:04,VALID,1001.32,VALID,0,VALID,94.5066,VALID,0,VALID,24.7159,VALID,99,VALID,0.534375,
2009-02-12, 02:21:04,VALID,1001.3,VALID,0,VALID,94.4532,VALID,0,VALID,24.7159,VALID,117,VALID,0.105469,
2009-02-12, 02:22:04,VALID,1001.34,VALID,0,VALID,94.4227,VALID,0,VALID,24.714,VALID,115,VALID,0.425391,
2009-02-12, 02:23:04,VALID,1001.33,VALID,0,VALID,94.3464,VALID,0,VALID,24.7548,VALID,106,VALID,0.307813,
2009-02-12, 02:24:04,VALID,1001.33,VALID,0,VALID,94.3006,VALID,0,VALID,24.7548,VALID,106,VALID,0.435156,
2009-02-12, 02:25:04,VALID,1001.33,VALID,0,VALID,94.2548,VALID,0,VALID,24.7937,VALID,103,VALID,0.342187,
2009-02-12, 02:26:04,VALID,1001.36,VALID,0,VALID,94.2014,VALID,0,VALID,24.7743,VALID,103,VALID,0,
2009-02-12, 02:27:04,VALID,1001.33,VALID,0,VALID,94.148,VALID,0,VALID,24.7743,VALID,102,VALID,0,
2009-02-12, 02:28:04,VALID,1001.37,VALID,0,VALID,94.087,VALID,0,VALID,24.7529,VALID,72,VALID,0.590234,
2009-02-12, 02:29:04,VALID,1001.39,VALID,0,VALID,94.0794,VALID,0,VALID,24.7529,VALID,74,VALID,0.422266,
2009-02-12, 02:30:04,VALID,1001.4,VALID,0,VALID,94.0412,VALID,0,VALID,24.7743,VALID,76,VALID,0.357422,
2009-02-12, 02:31:04,VALID,1001.44,VALID,0,VALID,93.9878,VALID,0.100563,VALID,24.7743,VALID,73,VALID,0.275,
2009-02-12, 02:32:04,VALID,1001.45,VALID,0,VALID,93.9649,VALID,0,VALID,24.7743,VALID,82,VALID,0.287109,
2009-02-12, 02:33:04,VALID,1001.46,VALID,0,VALID,93.9497,VALID,0,VALID,24.7548,VALID,82,VALID,0.135937,
2009-02-12, 02:34:04,VALID,1001.5,VALID,0,VALID,93.881,VALID,0,VALID,24.7743,VALID,82,VALID,0.421094,
2009-02-12, 02:35:04,VALID,1001.46,VALID,0,VALID,93.8505,VALID,0,VALID,24.7335,VALID,82,VALID,0.494141,
2009-02-12, 02:36:04,VALID,1001.49,VALID,0,VALID,93.82,VALID,0,VALID,24.7548,VALID,82,VALID,0.396875,
2009-02-12, 02:37:04,VALID,1001.49,VALID,0,VALID,93.7742,VALID,0,VALID,24.7548,VALID,82,VALID,0.560156,
2009-02-12, 02:38:04,VALID,1001.47,VALID,0,VALID,93.7589,VALID,0,VALID,24.7548,VALID,89,VALID,0.589063,
2009-02-12, 02:39:04,VALID,1001.44,VALID,0,VALID,93.6903,VALID,0,VALID,24.7761,VALID,87,VALID,0.340625,
2009-02-12, 02:40:04,VALID,1001.41,VALID,0,VALID,93.6445,VALID,0,VALID,24.7548,VALID,81,VALID,0.94375,
2009-02-12, 02:41:04,VALID,1001.43,VALID,0,VALID,93.6292,VALID,0,VALID,24.7761,VALID,89,VALID,0.271875,
2009-02-12, 02:42:04,VALID,1001.43,VALID,0,VALID,93.5682,VALID,0,VALID,24.7761,VALID,85,VALID,0.107813,
2009-02-12, 02:43:04,VALID,1001.42,VALID,0,VALID,93.5301,VALID,0,VALID,24.7567,VALID,59,VALID,0.218359,
2009-02-12, 02:44:04,VALID,1001.44,VALID,0,VALID,93.4767,VALID,0,VALID,24.7548,VALID,71,VALID,0.76875,
2009-02-12, 02:45:04,VALID,1001.44,VALID,0,VALID,93.4538,VALID,0,VALID,24.7956,VALID,65,VALID,0.207031,
2009-02-12, 02:46:04,VALID,1001.46,VALID,0,VALID,93.3928,VALID,0,VALID,24.7956,VALID,39,VALID,0.386328,
2009-02-12, 02:47:04,VALID,1001.45,VALID,0,VALID,93.3622,VALID,0,VALID,24.8364,VALID,54,VALID,0.357031,
2009-02-12, 02:48:04,VALID,1001.45,VALID,0,VALID,93.2859,VALID,0,VALID,24.8151,VALID,43,VALID,0.472266,
2009-02-12, 02:49:04,VALID,1001.44,VALID,0,VALID,93.2097,VALID,0,VALID,24.854,VALID,36,VALID,0.439453,
2009-02-12, 02:50:04,VALID,1001.4,VALID,0,VALID,93.0723,VALID,0,VALID,24.854,VALID,34,VALID,0.474219,
2009-02-12, 02:51:04,VALID,1001.4,VALID,0,VALID,93.0113,VALID,0,VALID,24.8346,VALID,32,VALID,0.366406,
2009-02-12, 02:52:04,VALID,1001.4,VALID,0,VALID,92.935,VALID,0,VALID,24.8346,VALID,32,VALID,0.272266,
2009-02-12, 02:53:04,VALID,1001.36,VALID,0,VALID,92.9121,VALID,0,VALID,24.8151,VALID,32,VALID,0,
2009-02-12, 02:54:04,VALID,1001.36,VALID,0,VALID,92.8892,VALID,0,VALID,24.7956,VALID,48,VALID,0.00117188,
2009-02-12, 02:55:04,VALID,1001.33,VALID,0,VALID,92.8587,VALID,0,VALID,24.7956,VALID,59,VALID,0.232812,
2009-02-12, 02:56:04,VALID,1001.33,VALID,0,VALID,92.8511,VALID,0,VALID,24.7724,VALID,91,VALID,0.408984,
2009-02-12, 02:57:04,VALID,1001.33,VALID,0,VALID,92.8358,VALID,0,VALID,24.7335,VALID,91,VALID,0.251172,
2009-02-12, 02:58:04,VALID,1001.31,VALID,0,VALID,92.8816,VALID,0,VALID,24.7353,VALID,91,VALID,0.571484,
2009-02-12, 02:59:04,VALID,1001.33,VALID,0,VALID,92.9579,VALID,0,VALID,24.7548,VALID,101,VALID,0.898047,
2009-02-12, 03:00:04,VALID,1001.33,VALID,0,VALID,92.9655,VALID,0,VALID,24.7724,VALID,99,VALID,0.992578,
2009-02-12, 03:01:04,VALID,1001.32,VALID,0,VALID,92.9045,VALID,0,VALID,24.7919,VALID,99,VALID,0.823047,
2009-02-12, 03:02:04,VALID,1001.32,VALID,0,VALID,92.7824,VALID,0,VALID,24.7919,VALID,101,VALID,0.467969,
2009-02-12, 03:03:04,VALID,1001.31,VALID,0,VALID,92.7138,VALID,0.100563,VALID,24.8327,VALID,100,VALID,0.425,
2009-02-12, 03:04:04,VALID,1001.3,VALID,0,VALID,92.6146,VALID,0,VALID,24.8132,VALID,99,VALID,0.264453,
2009-02-12, 03:05:04,VALID,1001.32,VALID,0,VALID,92.5536,VALID,0,VALID,24.7919,VALID,95,VALID,0.35625,
2009-02-12, 03:06:04,VALID,1001.29,VALID,0,VALID,92.5383,VALID,0,VALID,24.7724,VALID,95,VALID,0.336328,
2009-02-12, 03:07:04,VALID,1001.34,VALID,0,VALID,92.5307,VALID,0,VALID,24.7335,VALID,95,VALID,0.288672,
2009-02-12, 03:08:04,VALID,1001.31,VALID,0,VALID,92.546,VALID,0,VALID,24.7353,VALID,95,VALID,0.30625,
2009-02-12, 03:09:04,VALID,1001.34,VALID,0,VALID,92.5917,VALID,0,VALID,24.7567,VALID,95,VALID,0,
2009-02-12, 03:10:04,VALID,1001.35,VALID,0,VALID,92.6528,VALID,0,VALID,24.6945,VALID,96,VALID,0.0109375,
2009-02-12, 03:11:04,VALID,1001.35,VALID,0,VALID,92.6833,VALID,0,VALID,24.6964,VALID,95,VALID,0.317969,
2009-02-12, 03:12:04,VALID,1001.36,VALID,0,VALID,92.7138,VALID,0,VALID,24.6964,VALID,95,VALID,0.249609,
2009-02-12, 03:13:04,VALID,1001.33,VALID,0,VALID,92.7519,VALID,0,VALID,24.675,VALID,47,VALID,0.327344,
2009-02-12, 03:14:04,VALID,1001.34,VALID,0,VALID,92.7977,VALID,0,VALID,24.6556,VALID,46,VALID,0.278906,
2009-02-12, 03:15:04,VALID,1001.31,VALID,0,VALID,92.8664,VALID,0,VALID,24.6574,VALID,46,VALID,0.251953,
2009-02-12, 03:16:04,VALID,1001.33,VALID,0,VALID,92.9274,VALID,0,VALID,24.6361,VALID,46,VALID,0.171875,
2009-02-12, 03:17:04,VALID,1001.33,VALID,0,VALID,92.9655,VALID,0,VALID,24.638,VALID,46,VALID,0.412109,
2009-02-12, 03:18:04,VALID,1001.31,VALID,0,VALID,93.0037,VALID,0,VALID,24.6185,VALID,46,VALID,0.120312,
2009-02-12, 03:19:04,VALID,1001.35,VALID,0,VALID,93.0647,VALID,0,VALID,24.5972,VALID,46,VALID,0.177344,
2009-02-12, 03:20:04,VALID,1001.38,VALID,0,VALID,93.0647,VALID,0,VALID,24.6185,VALID,46,VALID,0.197266,
2009-02-12, 03:21:04,VALID,1001.36,VALID,0,VALID,93.0495,VALID,0,VALID,24.5796,VALID,46,VALID,0.244531,
2009-02-12, 03:22:04,VALID,1001.39,VALID,0,VALID,93.0723,VALID,0,VALID,24.5582,VALID,46,VALID,0.046875,
2009-02-12, 03:23:04,VALID,1001.39,VALID,0,VALID,93.1029,VALID,0,VALID,24.5814,VALID,46,VALID,0,
2009-02-12, 03:24:04,VALID,1001.4,VALID,0,VALID,93.1715,VALID,0,VALID,24.5406,VALID,46,VALID,0,
2009-02-12, 03:25:04,VALID,1001.42,VALID,0,VALID,93.2097,VALID,0,VALID,24.5193,VALID,46,VALID,0,
2009-02-12, 03:26:04,VALID,1001.41,VALID,0,VALID,93.2783,VALID,0,VALID,24.5425,VALID,46,VALID,0,
2009-02-12, 03:27:04,VALID,1001.39,VALID,0,VALID,93.3088,VALID,0,VALID,24.523,VALID,46,VALID,0.0179687,
2009-02-12, 03:28:04,VALID,1001.4,VALID,0,VALID,93.3546,VALID,0,VALID,24.523,VALID,46,VALID,0.148828,
2009-02-12, 03:29:04,VALID,1001.38,VALID,0,VALID,93.4156,VALID,0,VALID,24.4822,VALID,46,VALID,0.0925781,
2009-02-12, 03:30:04,VALID,1001.38,VALID,0,VALID,93.4309,VALID,0,VALID,24.5035,VALID,46,VALID,0.239844,
2009-02-12, 03:31:04,VALID,1001.38,VALID,0,VALID,93.4843,VALID,0,VALID,24.5035,VALID,46,VALID,0.284375,
2009-02-12, 03:32:04,VALID,1001.37,VALID,0,VALID,93.5377,VALID,0,VALID,24.4822,VALID,46,VALID,0.392969,
2009-02-12, 03:33:04,VALID,1001.38,VALID,0,VALID,93.5377,VALID,0,VALID,24.523,VALID,46,VALID,0.162109,
2009-02-12, 03:34:04,VALID,1001.37,VALID,0,VALID,93.5453,VALID,0,VALID,24.5035,VALID,46,VALID,0.053125,
2009-02-12, 03:35:04,VALID,1001.38,VALID,0,VALID,93.5072,VALID,0,VALID,24.5035,VALID,46,VALID,0.152734,
2009-02-12, 03:36:04,VALID,1001.35,VALID,0,VALID,93.5224,VALID,0,VALID,24.5249,VALID,46,VALID,0.499609,
2009-02-12, 03:37:04,VALID,1001.34,VALID,0,VALID,93.5682,VALID,0,VALID,24.5249,VALID,46,VALID,0.246094,
2009-02-12, 03:38:04,VALID,1001.38,VALID,0,VALID,93.614,VALID,0,VALID,24.523,VALID,46,VALID,0.296094,
2009-02-12, 03:39:04,VALID,1001.39,VALID,0,VALID,93.5911,VALID,0,VALID,24.4822,VALID,45,VALID,0.264062,
2009-02-12, 03:40:04,VALID,1001.41,VALID,0,VALID,93.614,VALID,0,VALID,24.4822,VALID,45,VALID,0.171484,
2009-02-12, 03:41:04,VALID,1001.41,VALID,0,VALID,93.614,VALID,0,VALID,24.4804,VALID,45,VALID,0.253516,
2009-02-12, 03:42:04,VALID,1001.39,VALID,0,VALID,93.6369,VALID,0,VALID,24.4822,VALID,45,VALID,0,
2009-02-12, 03:43:04,VALID,1001.41,VALID,0,VALID,93.6369,VALID,0,VALID,24.4628,VALID,45,VALID,0.0464844,
2009-02-12, 03:44:04,VALID,1001.43,VALID,0,VALID,93.6674,VALID,0,VALID,24.4628,VALID,45,VALID,0.1,
2009-02-12, 03:45:04,VALID,1001.44,VALID,0,VALID,93.6979,VALID,0.100563,VALID,24.4628,VALID,45,VALID,0,
2009-02-12, 03:46:04,VALID,1001.44,VALID,0,VALID,93.7055,VALID,0,VALID,24.4628,VALID,45,VALID,0,
2009-02-12, 03:47:04,VALID,1001.44,VALID,0,VALID,93.7361,VALID,0,VALID,24.4433,VALID,45,VALID,0,
2009-02-12, 03:48:04,VALID,1001.42,VALID,0,VALID,93.7437,VALID,0.100563,VALID,24.4433,VALID,45,VALID,0,
2009-02-12, 03:49:04,VALID,1001.45,VALID,0,VALID,93.8047,VALID,0,VALID,24.4433,VALID,45,VALID,0.160156,
2009-02-12, 03:50:04,VALID,1001.44,VALID,0,VALID,93.8276,VALID,0,VALID,24.4433,VALID,45,VALID,0.224609,
2009-02-12, 03:51:04,VALID,1001.45,VALID,0,VALID,93.8505,VALID,0.100563,VALID,24.4628,VALID,45,VALID,0.294922,
2009-02-12, 03:52:04,VALID,1001.45,VALID,0,VALID,93.881,VALID,0,VALID,24.4628,VALID,45,VALID,0.149219,
2009-02-12, 03:53:04,VALID,1001.46,VALID,0,VALID,93.9191,VALID,0,VALID,24.4414,VALID,102,VALID,0.49375,